Location: Dötzum
(52.0808°N, 9.8063°E)
Time: 06:00:07
(UTC+00:00)

UNK - Pass Details

Date: 27 May 2022
Orbit: 666 x 684 km, 98.2° (Epoch: 26 June)

Event Time Altitude Azimuth Distance (km) Brightness Sun altitude
Exits shadow 01:15:39 10° 168° (SSE) 2,106 5.8 -12.3°
Reaches altitude 10° 01:15:40 10° 168° (SSE) 2,097 5.8 -12.3°
Maximum altitude 01:20:15 80° 254° (WSW) 690 3.7 -11.9°
Drops below altitude 10° 01:24:55 10° 343° (NNW) 2,125 7.0 -11.6°
Sets 01:27:10 0° 345° (NNW) 3,048 7.8 -11.4°
